TimeEST,TemperatureF,Dew PointF,Humidity,Sea Level PressureIn,VisibilityMPH,Wind Direction,Wind SpeedMPH,Gust SpeedMPH,PrecipitationIn,Events,Conditions,WindDirDegrees,DateUTC
12:53 AM,23.0,12.9,65,30.19,10.0,West,8.1,-,N/A,,Clear,270,2013-02-20 05:53:00
1:53 AM,21.9,12.9,68,30.18,10.0,WNW,4.6,-,N/A,,Mostly Cloudy,290,2013-02-20 06:53:00
2:53 AM,23.0,12.9,65,30.18,10.0,West,5.8,-,N/A,,Overcast,280,2013-02-20 07:53:00
3:53 AM,24.1,12.9,62,30.19,10.0,WNW,8.1,-,N/A,,Overcast,290,2013-02-20 08:53:00
4:53 AM,21.9,10.9,63,30.20,10.0,WNW,9.2,-,N/A,,Overcast,290,2013-02-20 09:53:00
5:53 AM,21.0,10.9,65,30.24,10.0,WNW,4.6,-,N/A,,Scattered Clouds,290,2013-02-20 10:53:00
6:53 AM,19.9,10.9,68,30.26,10.0,WNW,3.5,-,N/A,,Clear,290,2013-02-20 11:53:00
8:53 AM,23.0,12.0,63,30.28,10.0,WNW,6.9,-,N/A,,Clear,290,2013-02-20 13:53:00
9:53 AM,25.0,12.9,60,30.28,10.0,WNW,6.9,-,N/A,,Clear,290,2013-02-20 14:53:00
10:53 AM,26.1,12.0,55,30.31,10.0,West,9.2,-,N/A,,Partly Cloudy,260,2013-02-20 15:53:00
11:53 AM,27.0,12.0,53,30.31,10.0,West,8.1,-,N/A,,Partly Cloudy,260,2013-02-20 16:53:00
12:53 PM,28.9,14.0,54,30.30,10.0,NW,9.2,-,N/A,,Partly Cloudy,320,2013-02-20 17:53:00
2:53 PM,30.9,15.1,52,30.28,10.0,WNW,5.8,-,N/A,,Clear,300,2013-02-20 19:53:00
3:53 PM,30.9,12.9,47,30.28,10.0,WNW,5.8,-,N/A,,Clear,290,2013-02-20 20:53:00
4:53 PM,30.9,12.0,46,30.28,10.0,WNW,8.1,-,N/A,,Clear,300,2013-02-20 21:53:00
5:53 PM,30.0,12.0,47,30.28,10.0,WNW,3.5,-,N/A,,Clear,300,2013-02-20 22:53:00
6:53 PM,28.9,12.9,51,30.29,10.0,NNW,5.8,-,N/A,,Clear,340,2013-02-20 23:53:00
7:53 PM,28.9,12.9,51,30.30,10.0,North,5.8,-,N/A,,Clear,350,2013-02-21 00:53:00
8:53 PM,28.0,12.9,53,30.29,10.0,Calm,Calm,-,N/A,,Clear,0,2013-02-21 01:53:00
9:53 PM,26.1,12.0,55,30.30,10.0,NNE,4.6,-,N/A,,Clear,20,2013-02-21 02:53:00
11:53 PM,24.1,12.0,60,30.31,10.0,North,3.5,-,N/A,,Clear,360,2013-02-21 04:53:00